Regional Weather Roundup
Issued by NWS Charleston, SC

Current Version | Previous Version | Graphics & Text | Print | Product List | Glossary On
Versions: 1 2 3 4 5 6 7 8 9 10 11 12 13 14 15 16 17 18 19 20 21 22 23 24 25 26 27 28 29 30 31 32 33 34 35 36 37 38 39 40 41 42 43 44 45 46 47 48 49 50
000
ASUS42 KCHS 220510
RWRCHS

REGIONAL WEATHER ROUNDUP
NATIONAL WEATHER SERVICE CHARLESTON SC
1200 AM EST MON DEC 22 2014

NOTE: "FAIR" INDICATES FEW OR NO CLOUDS BELOW 12,000 FEET WITH NO
SIGNIFICANT WEATHER AND/OR OBSTRUCTIONS TO VISIBILITY.

NOT ALL STATIONS ARE QUALITY CONTROLLED BY THE NATIONAL
WEATHER SERVICE. USE DATA WITH CAUTION...ESPECIALLY
DEWPOINT OBSERVATIONS.

SCZ027-030-031-034>040-042>050-220600-
...SOUTHEAST SOUTH CAROLINA...

CITY           SKY/WX    TMP DP  RH WIND       PRES   REMARKS
N CHARLESTON   CLOUDY    47  46  97 NE6       30.11R
WATERFRONT PRK NOT AVBL
MOUNT PLEASANT CLOUDY    48  48 100 N6        30.08F FOG
PINOPOLIS        N/A     48  46  93 NE9       30.04F
MONCKS CORNER  RAIN      46  45  93 CALM      30.12R
SUMMERVILLE    DRIZZLE   46  46 100 NE3       30.11F
BEAUFORT MCAS  CLOUDY    48  46  93 CALM      30.10F
BEAUFORT ARPT  CLOUDY    46  46 100 N5        30.10S
HILTON HEAD IS DRIZZLE   48  48 100 N9        30.11F
WALTERBORO     RAIN      46 N/A N/A N3        30.11S
ALLENDALE      CLOUDY    48  46  93 CALM      30.10R FOG

...SOUTHERN MIDLANDS AND PEE DEE...

CITY           SKY/WX    TMP DP  RH WIND       PRES   REMARKS
GEORGETOWN     NOT AVBL
KINGSTREE      NOT AVBL
ORANGEBURG     LGT RAIN  46  43  89 NE8       30.11F
BARNWELL       CLOUDY    46  46 100 NE6       30.11S
AIKEN          DRIZZLE   45  45 100 NE8       30.14F
MANNING        NOT AVBL
COLUMBIA       LGT RAIN  47  44  90 NE6       30.12F FOG
SUMTER         LGT RAIN  45  43  92 NE10      30.12S
FLORENCE       LGT RAIN  44  41  89 NE7       30.14F FOG
MYRTLE BEACH   CLOUDY    45  41  87 N8        30.14F
N MYRTLE BEACH LGT RAIN  45  42  89 N7        30.13F

$$

GAZ063-065-086>088-099>101-113>116-118-119-134>141-150-220600-
...SOUTHEAST GEORGIA...

CITY           SKY/WX    TMP DP  RH WIND       PRES   REMARKS
SAVANNAH ARPT  CLOUDY    48  45  89 N7        30.10F
HUNTER AAF     CLOUDY    48  48 100 NE7       30.06F
FORT STEWART   LGT RAIN  48  46  93 NE5       30.06F
STATESBORO     CLOUDY    46  46 100 E5        30.08F
SYLVANIA       CLOUDY    46  46 100 E3        30.10F FOG
CLAXTON        DRIZZLE   46  46 100 E6        30.08F

...CSRA...CENTRAL AND FAR SOUTHEAST GEORGIA...

CITY           SKY/WX    TMP DP  RH WIND       PRES   REMARKS
THOMSON        CLOUDY    48  48 100 NE7       30.16S
AUGUSTA-BUSH   LGT RAIN  47  45  93 N6        30.11S FOG
AUGUSTA-DANIEL LGT RAIN  48  45  89 N8        30.11F
SWAINSBORO     CLOUDY   N/A N/A N/A E7        30.09F HAZE
VIDALIA        CLOUDY    46  46 100 E8        30.07F FOG
EASTMAN        CLOUDY    47  47 100 NE3       30.10S FOG
HAZLEHURST     DRIZZLE   48  48 100 E3        30.05F
ALMA           CLOUDY    48  47  96 NE5       30.08F FOG
WAYCROSS       RAIN      53  52  98 CALM      30.08S
JESUP          CLOUDY    52  50  93 CALM      30.08F
BAXLEY         CLOUDY    50  48  93 NE6       30.07F
BRUNSWICK      CLOUDY    54  52  94 CALM      30.08R
SAINT SIMONS   CLOUDY    55  54  96 N8        30.07R

$$

SCZ027-028-034-036>038-045-046-048>050-GAZ119-141-220600-
...LAKE AND SUPPLEMENTAL COASTAL OBSERVATIONS...

STATION/POSITION TIME  TEMP    WIND        PRES    WAVE   SWELL
                       AIR SEA DIR/SP/G            HT/PER HT/PER/DIR
                 (UTC) (F)     (DEG/KT/KT) (MB)    (FT/S) (FT/S/D)
UPR LAKE MARION  NOT AVBL
WINYAH BAY       0400   47      30/  9     1020.0S
LAKE MURRAY      0400   46      30/  3/  7 1020.3F
ACE BASIN NERRS  0400   47     360/  1     1019.0S
FORT PULASKI     0500   49 56  330/  8/ 11 1019.4F
SAPELO ISLAND    0400   52      10/  7     1018.0R

$$

ANZ835-935-AMZ111-154-330-350-352-354-370-450-454-472-220600-
...C-MAN AND BUOY OBSERVATIONS...

STATION/POSITION TIME  TEMP    WIND        PRES    WAVE   SWELL
                       AIR SEA DIR/SP/G            HT/PER HT/PER/DIR
                 (UTC) (F)     (DEG/KT/KT) (MB)    (FT/S) (FT/S/D)
BUOY 41004       0500   67 71   50/ 19/ 23 1016.7F   7/ 7   3/13
BUOY 41008       0500   60 59   10/ 10/ 12 1017.6R   5/ 7   5/ 70/ 7
FOLLY BEACH CMAN 0400   52      40/ 20/ 23 1019.6F
CAPERS NEARSHORE 0400   51      70/ 21/ 25   N/A
FRIPP NEARSHORE  NOT AVBL


STATION/POSITION TIME  TEMP    WIND        PRES    WAVE   SWELL
                       AIR SEA DIR/SP/G            HT/PER HT/PER/DIR
                 (UTC) (F)     (DEG/KT/KT) (MB)    (FT/S) (FT/S/D)
5E ST. MARYS GA  0500      61                N/A     4/ 6
FRYING PAN BUOY  0500   59 70   50/ 21/ 25 1019.0F   7/ 7
BUOY 41025       0500   62                 1021.2F   5/ 5
CAPE LOOKOUT NC  0400   46      20/ 17/ 22 1021.5F
BUOY 41002       0413   71 72  100/ 14/ 16 1018.9F   6/ 7   3/ 60/ 7
BUOY 41010       0500   75 77  180/ 14/ 16 1018.1F   3/ 8   3/ 20/ 8
ST AUGUSTINE FL  0500   61     330/  2/  3 1018.5R


$$


USA.gov is the U.S. government's official web portal to all federal, state and local government web resources and services.